Regional Weather Roundup
Issued by NWS

Home | Current Version | Previous Version | Graphics & Text | Print | Product List | Glossary Off
Versions: 1 2 3 4 5 6 7 8 9 10 11 12 13 14 15 16 17 18 19 20 21 22 23 24 25 26 27 28 29 30 31 32 33 34 35 36 37 38 39 40 41 42 43 44 45 46 47 48 49 50

000
ASUS43 KMPX 280901
RWRMN
WEATHER ROUNDUP FOR MINNESOTA
NATIONAL WEATHER SERVICE TWIN CITIES/CHANHASSEN MN
300 AM CST WED JAN 28 2015


NOTE: "FAIR" INDICATES FEW OR NO CLOUDS BELOW 12,000 FEET WITH NO
SIGNIFICANT WEATHER AND/OR OBSTRUCTIONS TO VISIBILITY. N/A MEANS
CURRENT SKY AND/OR WEATHER CONDITIONS ARE NOT AVAILABLE.

MNZ060>063-068>070-281000-
   Twin Cities Metro

CITY           SKY/WX    TMP DP  RH WIND       PRES   REMARKS
TWIN CITIES    CLOUDY    30  25  81 SE13      30.08F WCI  20
ST PAUL        CLOUDY    30  26  85 SE10      30.09F WCI  21
CRYSTAL        CLOUDY    31  26  82 SE15G22   30.05F WCI  20
BLAINE         CLOUDY    30  28  93 SE13      30.06F WCI  20
LAKEVILLE      CLOUDY    28  27  93 SE8       30.08S WCI  20
EDEN PRAIRIE   CLOUDY    30  26  85 S13       30.05F WCI  20
SOUTH ST PAUL  CLOUDY    31  26  83 SE5       30.08F WCI  26
LAKE ELMO      CLOUDY    30  27  86 SE9       30.09S WCI  22
$$
MNZ001>005-007-008-013>017-022>024-027-028-281000-
   Northwest Minnesota

CITY           SKY/WX    TMP DP  RH WIND       PRES   REMARKS
BEMIDJI        CLOUDY    30  27  90 SE9G16    29.91F WCI  22
HALLOCK        CLOUDY    34  30  86 SE12      29.86S WCI  25
ROSEAU         CLOUDY    30  27  86 SE10      29.89F WCI  21
WARROAD        CLOUDY    28  25  86 SE8       29.91F WCI  20
THIEF RVR FALL CLOUDY    30  28  93 SE9       29.88F WCI  22
CROOKSTON      CLOUDY    34  30  86 S14       29.87F WCI  24
FOSSTON        CLOUDY    30  28  93 SE10      29.88F WCI  21
DETROIT LAKES  CLOUDY    34  32  93 S17       29.88F WCI  23
MOORHEAD       CLOUDY    34  34 100 S16       29.86F WCI  23
PARK RAPIDS    CLOUDY    31  29  92 SE14      29.91F WCI  21
MAHNOMEN       CLOUDY    32  30  92 S10G17    29.86F WCI  24
$$
MNZ006-009>011-018-025>026-281000-
   North Central Minnesota

CITY           SKY/WX    TMP DP  RH WIND       PRES   REMARKS
BAUDETTE       CLOUDY    28  23  81 SE7       29.92F WCI  21
FLAG ISLAND    CLOUDY    28  25  86 SE6       29.92F WCI  22
INTL FALLS     CLOUDY    26  23  88 SE5       29.97F WCI  20
WASKISH        CLOUDY    30  27  86 SE7       29.93F WCI  23
BIG FORK       CLOUDY    28  25  86 S8        29.97S WCI  20
LONGVILLE      CLOUDY    28  27  93 SE9       29.96F WCI  20
GRAND RAPIDS   CLOUDY    27  23  86 S12       29.98F WCI  16
CRANE LAKE     CLOUDY    27  25  93 CALM      30.02F
ORR            CLOUDY    25  21  86 S6        29.97S WCI  18
COOK           CLOUDY    25  23  93 S7        30.00F WCI  17
WALKER         CLOUDY    30  27  88 SE6       29.94F WCI  24
$$
MNZ012-019>021-037-281000-
   Northeast Minnesota

CITY           SKY/WX    TMP DP  RH WIND       PRES   REMARKS
DULUTH         MOCLDY    24  19  81 S9        30.03F WCI  14
ELY            CLOUDY    27  23  86 S3        30.02S
HIBBING        CLOUDY    27  22  81 VRB6      30.00F WCI  20
EVELETH        CLOUDY    27  23  86 S7        30.03S WCI  19
DULUTH HARBOR  MOCLDY    27  21  80 S5        30.10F WCI  21
TWO HARBORS    CLOUDY    28  23  80 S3        30.05F
SILVER BAY     CLOUDY    28  25  86 S5        30.05F WCI  23
GRAND MARAIS     N/A     31  26  82 SW14      30.11F WCI  21
G MARAIS ARPRT   N/A     25  19  80 S6        30.05F WCI  18
$$
MNZ029>031-032-039>041-046>048-054>057-064-281000-
   West Central Minnesota

CITY           SKY/WX    TMP DP  RH WIND       PRES   REMARKS
FERGUS FALLS   CLEAR     32  30  93 SE18G24   29.90F WCI  20
WHEATON        PTCLDY    30  28  93 SE18      29.88F WCI  18
MORRIS         CLOUDY    32  30  93 SE21G28   29.89F FOG     WCI  20
ALEXANDRIA     CLOUDY    32  29  88 SE17      29.92F WCI  21
ELBOW LAKE     CLOUDY    32  30  94 SE18G24   29.88F WCI  20
WADENA         CLOUDY    30  28  93 SE13      29.91F WCI  20
GLENWOOD       CLOUDY    32  30  93 SE17G23   29.94F FOG     WCI  21
APPLETON       PTCLDY    34  30  86 SE14G20   29.91F WCI  24
BENSON         CLOUDY    34  30  86 S15G22    29.93F WCI  24
ORTONVILLE     PTCLDY    30  28  93 SE15      29.88F FOG     WCI  19
MADISON        PTCLDY    36  34  93 SE17      29.89F
WILLMAR        CLOUDY    34  30  86 SE18      29.97F FOG     WCI  23
$$
MNZ033>034-036-042>043-049>051-058-059-281000-
   Central Minnesota

CITY           SKY/WX    TMP DP  RH WIND       PRES   REMARKS
ST CLOUD       CLOUDY    31  28  89 SE10      30.02S WCI  22
SAUK CENTRE    CLOUDY    31  30  95 SE15      29.97F WCI  21
PAYNESVILLE    CLOUDY    29  29  98 E12G20    29.99F FOG     WCI  20
AITKIN         CLOUDY    30  25  80 SE7       29.99F WCI  23
PINE RIVER     CLOUDY    28  27  93 S12       29.99F FOG     WCI  18
BRAINERD       CLOUDY    30  27  88 S12G20    29.99F WCI  20
STAPLES        CLOUDY    28  28 100 SE13      29.94F FOG     WCI  18
LONG PRAIRIE   CLOUDY    30  30 100 SE14      29.96F FOG     WCI  20
LITTLE FALLS   CLOUDY    32  28  86 SE9       30.01F FOG     WCI  24
LITCHFIELD     CLOUDY    32  32 100 SE10G18   30.01F WCI  24
BUFFALO        CLOUDY    31  28  87 SE7       30.05F WCI  24
MAPLE LAKE     CLOUDY    32  30  93 SE9       30.04F WCI  24
$$
MNZ037-044-045-052-053-281000-
   East Central Minnesota

CITY           SKY/WX    TMP DP  RH WIND       PRES   REMARKS
PRINCETON      CLOUDY    30  27  86 SE8       30.05S WCI  23
MORA           CLOUDY    28  25  86 SE5       30.07S WCI  23
CAMBRIDGE      CLOUDY    30  23  74 SE7       30.05S WCI  23
RUSH CITY      CLOUDY    28  25  87 SE9       30.07F WCI  19
MOOSE LAKE     CLOUDY    28  23  80 S6        30.03F WCI  22
HINCKLEY       CLOUDY    28  27  93 S8        30.06F WCI  20
CLOQUET        CLOUDY    25  21  86 S6        30.03F WCI  18
MCGREGOR       CLOUDY    28  27  93 SE10      30.02S WCI  19
$$
MNZ071>073-080-081-089-090-097-098-281000-
   Southwest Minnesota

CITY           SKY/WX    TMP DP  RH WIND       PRES   REMARKS
MONTEVIDEO     PTCLDY    32  32 100 S17       29.93F WCI  21
GRANITE FALLS  CLEAR     32  31  94 SE16G22   29.94F WCI  21
CANBY          PTCLDY    32  31  97 SE12      29.89F WCI  23
MARSHALL       CLEAR     32  27  80 SE16      29.92F WCI  21
REDWOOD FALLS  CLOUDY    33  30  88 SE20      29.98F WCI  21
OLIVIA         CLOUDY    32  32 100 SE16G25   29.97F FOG     WCI  21
PIPESTONE      PTCLDY    34  30  86 S15G26    29.88F WCI  24
WINDOM         CLOUDY    30  30 100 SE13G20   29.96F FOG     WCI  20
WORTHINGTON    CLEAR     30  28  93 SE14G20   29.94F WCI  20
JACKSON        CLOUDY    32  30  93 SE14      29.98F WCI  22
TRACY          CLEAR     33  31  93 S14G21    29.92F WCI  23
SLAYTON        CLEAR     32  30  93 SE17      29.91F WCI  21
$$
MNZ065>067-074>077-082>085-091>093-281000-
   South Central Minnesota

CITY           SKY/WX    TMP DP  RH WIND       PRES   REMARKS
MANKATO        CLOUDY    30  27  86 SE14G21   30.05S WCI  20
NEW ULM        CLOUDY    32  30  93 SE14      30.01F FOG     WCI  22
FAIRMONT       CLOUDY    30  27  86 SE16G22   30.01F WCI  19
GLENCOE        CLOUDY    32  31  96 SE10      30.03F WCI  24
FARIBAULT      CLOUDY    30  27  86 SE10      30.08S WCI  21
OWATONNA       CLOUDY    28  27  93 SE14      30.07F WCI  17
WASECA         CLOUDY    30  28  93 SE15G21   30.08S WCI  19
ALBERT LEA     CLOUDY    28  28 100 SE16      30.07R FOG     WCI  17
$$
MNZ078>079-086>088-094>096-281000-
   Southeast Minnesota

CITY           SKY/WX    TMP DP  RH WIND       PRES   REMARKS
ROCHESTER      CLOUDY    26  24  92 S15       30.09F WCI  14
RED WING       CLOUDY    28  25  86 S9        30.11S WCI  20
DODGE CENTER   CLOUDY    27  27 100 S17       30.07F FOG     WCI  14
WINONA         CLOUDY    30  27  86 SE8       30.16F WCI  23
AUSTIN         CLOUDY    28  27  93 SE9G18    30.08F FOG     WCI  20
PRESTON        CLOUDY    24  23  93 SE12      30.11F WCI  13
$$
ABBREVIATIONS USED IN REMARKS
   TC - TEMPERATURES IN CELSIUS
  WCI - WIND CHILL INDEX
   HX - HEAT INDEX
  VSB - VISIBILITY
$$


USA.gov is the U.S. government's official web portal to all federal, state and local government web resources and services.